This demonstration page uses our WeatherBlox Daily Observations layout. Learn more.

Left ArrowRight Arrow

Hourly Observations for October 26, 2015

Temp ( °F °C ) Dew Point ( °F °C ) Humidity (%) Winds ( mph kmh ) Pressure ( in mb ) Visibility ( mi km ) Precip ( " mm )
12:53 am 00:53 Cloudy 66 18.9 62 16.7 87 87 NNE 5 7 30.08 1019 10 16 0.00 0.03
1:53 am 01:53 Cloudy with Light Rain 65 18.3 63 17.2 93 93 NE 3 6 30.09 1019 7 11 0.00 0.03
2:46 am 02:46 Mostly Cloudy 64 18 63 17 94 94 NE 3 6 30.12 1020 9 14 0.00 0.00
2:53 am 02:53 Cloudy 65 18.3 63 17.2 93 93 NE 3 6 30.10 1019 8 13 0.00 0.03
3:10 am 03:10 Cloudy with Light Rain 64 18 63 17 94 94 NNE 6 9 30.12 1020 7 11 0.00 0.00
3:36 am 03:36 Cloudy 64 18 63 17 94 94 NNE 7 11 30.09 1019 10 16 0.00 0.00
3:53 am 03:53 Cloudy 66 18.9 62 16.7 87 87 Calm 30.09 1019 10 16 0.01 0.25
4:48 am 04:48 Cloudy with Light Rain 66 19 63 17 88 88 NE 3 6 30.12 1020 10 16 0.00 0.00
4:53 am 04:53 Cloudy with Light Rain 66 18.9 63 17.2 90 90 NNE 3 6 30.09 1019 10 16 0.01 0.25
5:53 am 05:53 Cloudy 66 18.9 63 17.2 90 90 Calm 30.09 1019 10 16 0.00 0.03
6:17 am 06:17 Cloudy 67 19.4 63 17.2 87 87 E 6 9 30.09 1019 10 16 0.00 0.00
6:53 am 06:53 Cloudy 67 19.4 64 17.8 91 91 E 6 9 30.09 1019 10 16 0.00 0.03
7:53 am 07:53 Cloudy 67 19.4 64 17.8 91 91 E 6 9 30.09 1019 10 16 0.00 0.03
8:53 am 08:53 Cloudy with Light Rain 67 19.4 64 17.8 91 91 ESE 6 9 30.13 1020 4 6 0.04 1.02
9:11 am 09:11 Cloudy with Light Rain 67 19.4 64 17.8 91 91 ENE 7 11 30.12 1020 6 10 0.02 0.51
9:20 am 09:20 Cloudy with Light Rain 66 19 64 18 94 94 E 6 9 30.15 1021 9 14 0.00 0.00
9:27 am 09:27 Cloudy with Light Rain 67 19.4 64 17.8 91 91 E 5 7 30.15 1021 10 16 0.03 0.76
9:37 am 09:37 Cloudy with Light Rain 67 19.4 64 17.8 91 91 E 6 9 30.15 1021 9 14 0.03 0.76
9:53 am 09:53 Cloudy with Light Rain 67 19.4 64 17.8 91 91 VRB 6 9 30.13 1020 9 14 0.04 1.02
10:41 am 10:41 Cloudy with Light Rain 68 20 64 17.8 87 87 E 8 13 30.15 1021 8 13 0.02 0.51
10:50 am 10:50 Cloudy with Heavy Rain 66 19 64 18 94 94 E 9 15 30.15 1021 3 4 0.00 0.00
10:51 am 10:51 Cloudy with Heavy Rain 66 19 64 18 94 94 E 10 17 30.15 1021 3 4 0.00 0.00
11:53 am 11:53 Cloudy with Light Rain 64 17.8 61 16.1 90 90 ENE 12 19 30.15 1021 5 8 0.16 4.06
12:53 pm 12:53 Cloudy 63 17.2 60 15.6 90 90 ENE 14 22 30.15 1021 10 16 0.02 0.51
1:53 pm 13:53 Cloudy with Light Rain 62 16.7 59 15 90 90 ENE 17 28 30.14 1021 6 10 0.00 0.03
2:53 pm 14:53 Cloudy with Light Rain 62 16.7 59 15 90 90 ENE 14 22 30.12 1020 6 10 0.03 0.76
3:17 pm 15:17 Cloudy with Light Rain 62 16.7 58 14.4 86 86 ENE 14 22 30.12 1020 10 16 0.01 0.25
3:53 pm 15:53 Cloudy with Light Rain 62 16.7 58 14.4 86 86 ENE 9 15 30.12 1020 10 16 0.01 0.25
4:53 pm 16:53 Cloudy with Light Rain 59 15 56 13.3 90 90 ENE 12 19 30.14 1021 5 8 0.03 0.76
5:16 pm 17:16 Cloudy with Light Rain 59 15 55 13 88 88 E 14 22 30.15 1021 7 11 0.00 0.00
5:18 pm 17:18 Cloudy with Light Rain 59 15 55 13 88 88 E 12 19 30.15 1021 7 11 0.00 0.00
5:53 pm 17:53 Cloudy with Light Rain 58 14.4 54 12.2 87 87 E 15 24 30.14 1021 6 10 0.04 1.02
6:45 pm 18:45 Cloudy 57 13.9 53 11.7 87 87 ENE 12 19 30.18 1022 10 16 0.01 0.25
6:53 pm 18:53 Cloudy 56 13.3 53 11.7 90 90 ENE 13 20 30.15 1021 10 16 0.01 0.25
7:10 pm 19:10 Cloudy with Light Rain 55 13 52 11 88 88 ENE 18 30 30.15 1021 10 16 0.00 0.00
7:53 pm 19:53 Cloudy with Light Rain 55 12.8 51 10.6 87 87 E 16 26 30.14 1021 8 13 0.03 0.76
8:53 pm 20:53 Cloudy with Light Rain 55 12.8 51 10.6 87 87 E 14 22 30.13 1020 7 11 0.09 2.29
9:21 pm 21:21 Cloudy 55 12.8 51 10.6 87 87 E 16 26 30.15 1021 10 16 0.01 0.25
9:28 pm 21:28 Cloudy 55 13 52 11 88 88 ENE 13 20 30.15 1021 10 16 0.00 0.00
9:53 pm 21:53 Cloudy 55 12.8 51 10.6 87 87 E 13 20 30.16 1021 10 16 0.01 0.25
10:16 pm 22:16 Cloudy 54 12.2 51 10.6 90 90 ENE 14 22 30.21 1023 10 16 0.00 0.00
10:53 pm 22:53 Cloudy with Light Rain 54 12.2 50 10 87 87 E 16 26 30.17 1022 10 16 0.00 0.03
11:11 pm 23:11 Cloudy with Light Rain 54 12.2 50 10 87 87 E 14 22 30.21 1023 10 16 0.00 0.03
11:39 pm 23:39 Cloudy 53 11.7 50 10 89 89 ENE 12 19 30.21 1023 10 16 0.00 0.03
11:53 pm 23:53 Cloudy 53 11.7 49 9.4 86 86 ENE 18 30 30.18 1022 10 16 0.00 0.03

Powered by AerisWeather